Flag for Germany Weather past 2 weeks in Rheine, North Rhine-Westphalia, Germany

Now
54 °F

Cool.


Feels Like: 54 °F
Forecast: 40 / 67 °F
Wind: 1 mph from Southwest

Location: Rheine-Bentlage

Current Time: May 23, 2015 at 6:36:36 AM

Latest Report: May 23, 2015 at 5:20 AM


Visibility: N/A

Pressure: 30.15 "Hg

Humidity: 82%

Dew point: 48 °F

Location of RheineLocation

Historic Weather in Rheine — Graph

°F

Rheine temperature yesterday

Maximum temperature yesterday: 66 °F (at 2:20 PM)
Minimum temperature yesterday: 43 °F (at 3:20 AM)
Average temperature yesterday: 56 °F

Past Weeks' High & Low Weather Summary

 TemperatureHumidityPressure
High77 °F (May 11, 4:20 PM)100% (May 8, 4:20 AM)30.33 "Hg (May 8, 4:20 AM)
Low37 °F (May 16, 3:20 AM)36% (May 11, 4:20 PM)29.59 "Hg (May 18, 7:20 PM)
Average54 °F69%30.05 "Hg
* Reported May 8 4:20 AM — May 23 4:20 AM, Rheine, Weather by CustomWeather, © 2015

Note: Actual official high and low records may vary slightly from our data, if they occured in-between our weather recording intervals... More about our weather records

Advertising

Rheine weather history for previous 24 hours

 ConditionsComfort  
Time TempWeatherWind HumidityBarometerVisibility
4:20 AM
Sat, May 23
55 °FCool.2 mph77%30.15 "HgN/A
3:20 AM55 °FCool.2 mph82%30.15 "HgN/A
2:20 AM55 °FCool.2 mph82%30.18 "HgN/A
1:20 AM55 °FCool.1 mph82%30.18 "HgN/A
12:20 AM57 °FCool.2 mph72%30.21 "HgN/A
11:20 PM
Fri, May 22
59 °FCool.5 mph68%30.21 "HgN/A
10:20 PM61 °FCool.3 mph68%30.18 "HgN/A
9:20 PM61 °FCool.2 mph63%30.18 "HgN/A
8:20 PM63 °FMild.2 mph59%30.18 "HgN/A
7:20 PM64 °FMild.5 mph52%30.18 "HgN/A
6:20 PM66 °FMild.7 mph46%30.18 "HgN/A
5:20 PM66 °FMild.6 mph46%30.21 "HgN/A
4:20 PM66 °FMild.7 mph46%30.21 "HgN/A
3:20 PM66 °FMild.6 mph46%30.24 "HgN/A
2:20 PM66 °FMild.6 mph46%30.24 "HgN/A
1:20 PM64 °FMild.7 mph49%30.27 "HgN/A
12:20 PM64 °FScattered clouds.7 mph52%30.27 "HgN/A
11:20 AM63 °FScattered clouds.7 mph52%30.27 "HgN/A
10:20 AM61 °FScattered clouds.7 mph52%30.30 "HgN/A
9:20 AM57 °FScattered clouds.6 mph67%30.30 "HgN/A
8:20 AM52 °FBroken clouds.3 mph82%30.30 "HgN/A
7:20 AM48 °FPartly sunny.2 mph94%30.30 "HgN/A
6:20 AM43 °FPassing clouds.2 mph100%30.30 "HgN/A
Weather by CustomWeather, © 2015

See weather overviewHow to use our weather pages